Location: D�derode
(51.8092°N, 10.1065°E)
Time: 19:40:46
(UTC+00:00)

Okean O Rocket - Pass Details

Date: 01 December 2020
Orbit: 622 x 645 km, 98.2° (Epoch: 25 January)

Event Time Altitude Azimuth Distance (km) Brightness Sun altitude
Rises 16:20:38 0° 155° (SSE) 2,903 5.0 -10.0°
Reaches altitude 10° 16:22:49 10° 153° (SSE) 2,004 4.1 -10.3°
Maximum altitude 16:27:08 66° 72° (ENE) 692 1.5 -10.9°
Drops below altitude 10° 16:31:32 10° 350° (N) 2,033 4.1 -11.6°
Sets 16:33:45 0° 348° (NNW) 2,950 5.0 -11.9°
